Wind_Speed
17 16 14 13 12 14 16 17 18 17 14 11 9 9 10 11 12 12 13 14 13 12 11 10 10 10 10 9 9 8 8 7 7 7 8 8 8 8 7 7 7 8 8 8 8 8 8 8 9 8 9 9 9 9 8 8 8 7 6 6 6 6 7 7 7 7 8 8 9 9 10 10 11 12 13 14 15 16 17 17 17 17 18 20 22
19 18 17 16 16 16 17 17 18 19 17 14 11 11 11 11 11 12 13 14 14 14 13 12 11 11 11 10 10 9 9 8 8 8 8 9 9 9 9 9 9 9 8 8 9 9 9 9 9 9 9 8 9 9 9 9 9 9 9 9 9 9 9 9 9 10 10 10 11 11 12 13 14 14 15 17 17 18 18 19 19 19 18 18 20
19 19 18 18 18 19 19 18 19 21 20 17 15 14 13 12 12 12 13 14 15 15 15 14 12 12 12 12 11 11 10 10 9 9 9 10 10 10 10 10 10 10 10 9 9 10 10 9 9 9 9 9 9 9 9 9 9 9 10 10 10 10 11 11 12 12 12 13 13 14 14 15 16 17 17 18 19 19 19 19 19 19 18 18 19
20 20 20 20 20 20 20 20 21 22 23 22 19 17 16 15 14 13 13 14 14 15 16 15 14 13 13 14 13 13 12 11 11 10 10 10 11 11 11 11 11 11 11 10 10 10 10 10 10 10 9 9 10 10 9 10 10 10 10 11 11 11 12 12 12 13 13 14 14 14 15 15 16 17 17 18 18 18 19 19 19 19 19 18 18
22 22 22 22 21 20 21 22 22 23 23 22 20 19 18 18 17 16 15 14 15 15 16 16 16 15 15 15 15 14 13 13 13 12 11 12 12 12 12 13 12 12 12 12 11 11 11 11 11 11 10 10 10 10 10 10 10 10 11 11 11 11 12 12 12 12 12 13 13 14 14 15 15 16 17 17 18 18 19 19 18 19 19 18 17
23 22 21 21 21 20 20 21 21 21 20 18 17 18 19 18 18 17 16 16 15 15 16 17 17 17 16 16 15 15 14 13 13 13 13 13 13 13 13 14 14 13 13 13 13 13 12 12 12 12 11 11 11 11 12 11 12 12 12 12 12 12 12 12 12 12 13 13 14 14 14 14 15 16 16 15 16 17 17 16 16 16 17 17 16
20 21 20 20 21 20 20 21 22 21 18 17 17 19 21 19 18 17 16 15 15 15 16 16 16 17 17 16 16 15 15 14 13 13 13 13 13 14 14 15 15 15 14 13 13 14 14 13 13 13 12 12 12 13 13 13 13 13 13 14 14 14 14 13 13 13 13 14 14 14 14 13 13 14 14 13 13 13 13 14 15 15 16 17 16
15 18 21 21 21 21 21 22 22 20 18 18 20 22 23 22 20 18 16 15 15 15 15 15 15 16 16 16 16 15 15 14 14 14 14 13 13 14 15 15 15 15 15 14 14 14 15 15 15 15 14 14 14 14 14 14 15 15 15 15 15 15 14 14 14 14 13 13 13 12 12 11 12 12 12 11 11 11 12 13 14 16 17 18 18
11 14 18 20 20 20 21 22 21 19 19 20 22 24 25 24 22 18 16 15 15 15 15 14 14 15 15 15 15 15 15 15 15 15 15 14 14 14 14 15 15 16 15 15 15 15 15 16 16 16 16 16 16 16 16 16 16 15 15 15 15 15 14 14 13 13 13 13 12 11 10 11 11 11 11 10 10 10 11 13 14 16 17 18 19
12 11 15 19 20 21 22 22 21 21 22 23 23 25 26 26 23 18 15 15 14 15 15 14 13 14 15 15 15 15 15 16 16 16 16 15 15 15 14 14 15 15 15 15 15 15 16 16 17 17 17 17 17 17 17 17 16 16 16 15 15 15 14 14 14 13 13 12 12 11 11 12 12 11 10 10 9 8 10 11 13 15 16 17 18
15 13 13 16 20 21 22 22 22 22 23 24 24 24 24 24 23 19 16 15 15 15 16 15 15 15 16 16 16 16 16 17 18 17 17 17 17 16 16 15 15 15 15 16 16 16 17 17 17 18 18 18 18 18 18 18 18 17 17 16 16 15 15 15 14 14 13 13 12 12 12 12 12 11 10 9 9 8 9 10 11 12 14 15 17
18 17 16 16 17 18 19 20 21 21 20 21 22 22 22 21 22 21 19 17 17 17 17 17 17 16 16 16 17 17 18 19 19 19 19 18 18 18 18 17 16 16 16 16 17 18 18 18 18 18 18 18 19 19 19 19 19 18 18 17 16 16 16 15 15 14 13 12 11 11 11 10 10 10 9 8 9 9 10 11 11 12 13 14 16
21 21 20 19 18 17 16 17 17 18 19 21 22 22 23 22 21 22 22 19 18 19 19 19 19 17 17 17 18 19 19 20 20 20 20 20 20 20 19 19 17 16 16 17 17 18 19 19 19 19 19 19 20 20 20 19 19 19 18 17 17 16 16 15 15 14 13 12 11 12 12 10 10 11 11 9 10 11 12 13 14 14 15 16 16
26 24 23 22 21 20 19 18 16 16 18 20 20 20 21 21 21 22 22 20 20 21 21 21 21 20 19 19 19 20 21 21 21 22 22 22 22 22 21 20 19 18 17 17 17 19 20 21 21 21 21 21 21 21 21 21 20 19 19 18 17 17 16 16 16 15 14 13 12 13 14 13 12 13 13 13 13 14 15 16 17 17 18 19 19
31 29 28 26 25 24 22 21 20 19 19 18 17 17 17 19 20 22 23 22 22 22 22 23 24 23 22 22 21 22 23 24 24 23 23 24 24 24 23 21 20 20 19 19 18 19 20 22 22 22 22 22 23 23 23 22 21 20 19 19 19 18 17 17 17 17 16 15 14 15 16 16 15 15 17 17 17 18 18 18 19 21 22 21 21
34 33 32 31 30 28 27 26 25 24 22 20 19 18 18 17 18 20 23 24 24 24 23 24 25 25 24 24 23 24 25 27 28 27 26 26 26 26 25 23 22 22 22 21 21 20 21 22 23 24 24 24 24 24 25 24 23 22 21 20 20 19 18 19 20 20 19 18 17 17 17 18 18 18 19 20 21 22 21 21 23 24 24 22 22
37 36 35 34 33 32 31 29 28 27 25 22 21 21 20 20 19 20 21 23 25 26 26 26 26 26 25 26 26 26 28 30 31 30 28 27 26 26 25 25 24 23 24 24 24 23 22 22 23 24 25 26 26 26 26 25 24 23 23 22 21 20 19 21 22 22 22 21 20 19 19 20 21 21 22 22 23 24 24 24 26 27 25 23 23
39 38 38 37 37 36 35 33 32 31 28 25 24 23 22 23 23 23 23 23 24 26 29 29 28 27 27 28 28 29 30 32 32 29 27 27 27 25 24 24 24 24 24 25 26 26 26 25 25 25 25 26 28 28 27 26 24 24 24 24 23 20 20 23 24 24 23 23 22 22 22 22 22 23 23 24 26 27 27 26 27 27 25 24 24
41 41 41 40 39 39 38 38 36 35 33 31 29 27 26 26 26 26 26 25 24 26 28 30 30 28 28 28 30 31 31 32 30 28 28 29 28 26 25 25 25 25 26 27 27 27 28 28 28 28 27 28 28 28 28 27 25 24 25 24 22 21 23 26 26 25 24 24 24 24 24 24 24 25 25 26 28 28 28 27 27 26 25 24 24
43 43 43 43 42 41 41 41 40 39 37 36 33 31 30 30 29 29 28 26 24 25 26 29 30 30 29 30 30 30 29 29 29 30 31 32 31 30 29 29 28 29 30 30 28 28 28 29 30 31 31 31 31 30 29 28 27 26 26 25 23 23 26 28 27 26 26 25 25 25 25 26 26 26 27 28 30 30 30 28 27 26 24 23 24
45 45 44 44 44 44 43 44 44 43 42 40 38 35 34 33 32 32 31 29 26 25 25 27 29 29 29 30 30 28 26 27 30 33 35 36 35 32 30 30 30 31 31 30 30 29 29 30 32 33 34 34 33 33 32 31 30 29 28 26 25 26 27 28 27 27 27 26 26 26 27 27 28 28 29 30 32 32 31 29 28 27 26 24 23
45 45 45 46 46 46 46 46 46 46 45 44 42 40 38 37 36 35 34 33 31 29 27 27 28 29 29 30 29 27 25 27 30 34 36 37 36 34 32 31 32 33 32 31 30 29 31 32 33 35 36 35 35 34 34 34 33 31 29 29 28 29 29 28 28 28 27 27 27 27 28 29 29 30 32 33 34 34 32 31 30 29 28 27 25
46 46 46 46 46 46 47 47 47 47 47 47 46 44 42 40 39 37 36 35 35 34 32 31 31 31 30 30 29 28 27 28 30 32 34 36 36 37 36 34 34 34 34 33 32 32 33 34 34 35 36 37 36 36 35 35 34 33 31 31 31 30 30 29 28 28 28 28 28 28 29 30 31 32 33 33 34 34 33 32 32 32 32 30 28
46 46 46 46 46 46 47 47 47 48 48 48 48 47 46 44 42 40 38 37 37 37 36 35 34 33 31 30 29 29 30 31 31 32 32 33 35 36 37 37 36 35 34 34 35 36 36 36 36 36 37 38 38 37 36 36 35 34 33 33 32 32 32 31 30 30 30 29 29 29 30 32 33 33 34 34 33 33 33 33 33 34 33 32 31
46 46 46 46 46 46 46 47 47 47 47 48 48 48 48 47 46 44 42 40 38 38 38 37 36 35 33 31 30 30 31 32 32 32 33 33 34 35 36 36 35 35 34 35 36 38 38 38 37 37 38 39 39 38 37 37 36 36 35 34 34 33 33 33 33 32 31 30 30 31 32 33 34 35 34 34 34 33 33 33 34 34 33 32 32
47 47 46 46 46 46 46 46 47 47 47 47 47 48 48 48 47 47 45 43 41 40 39 38 37 36 36 35 35 34 34 33 33 33 34 34 34 34 35 34 34 34 34 35 36 37 38 38 38 37 37 39 40 40 39 39 38 38 37 37 36 36 35 36 35 34 32 31 31 32 33 35 36 35 35 34 33 33 33 33 32 32 32 30 28
49 48 48 47 47 46 46 47 47 47 47 47 47 47 48 48 47 47 47 46 44 42 41 40 39 38 38 38 39 39 37 36 36 35 35 36 35 35 35 34 33 34 34 35 35 36 37 38 37 37 36 37 38 40 41 41 40 40 40 39 39 38 38 39 38 37 34 33 33 33 35 36 36 35 35 34 33 33 34 33 31 30 29 26 22
51 51 50 50 49 49 48 48 48 48 48 48 48 48 48 48 48 47 47 47 46 45 44 42 41 41 40 40 40 40 39 39 39 38 37 37 36 36 36 35 34 34 34 35 36 36 35 35 35 36 36 36 36 36 37 39 40 40 41 42 42 41 42 42 41 39 37 35 35 35 36 36 36 35 34 33 32 33 34 32 29 28 27 24 20
54 54 53 53 53 52 51 51 50 50 50 49 49 49 49 49 49 48 48 48 48 47 46 45 44 43 42 41 41 41 40 41 41 42 41 40 38 37 36 35 35 35 35 35 35 35 35 34 33 34 36 37 36 35 35 36 37 38 40 42 43 44 44 44 44 42 40 39 38 37 37 37 36 35 34 33 32 33 33 31 28 26 25 23 20
57 57 57 56 56 55 55 54 54 53 53 52 52 51 51 51 51 50 49 49 49 48 48 47 46 45 44 43 42 42 41 41 42 43 43 43 41 40 39 38 37 37 38 37 35 34 34 33 33 33 34 35 35 36 35 35 36 37 38 40 42 43 44 44 45 44 43 42 40 38 38 37 36 35 34 32 32 32 31 30 28 27 25 24 22
59 59 59 59 59 59 59 58 58 57 57 56 55 54 54 53 53 52 51 51 50 50 50 49 48 48 46 45 44 43 43 43 42 42 43 44 43 42 42 41 40 39 40 39 36 34 34 35 34 35 35 34 33 35 36 36 36 37 38 38 39 41 42 44 45 45 45 43 41 39 38 37 36 36 34 32 30 30 29 29 29 27 27 26 25
59 60 61 61 62 62 62 62 61 61 60 60 59 58 57 56 56 56 55 54 53 52 52 51 50 50 49 48 47 46 46 45 44 43 44 44 44 43 43 43 43 42 41 41 38 36 37 37 36 36 36 35 32 33 35 36 36 36 37 38 39 40 42 44 45 46 45 43 41 40 38 37 36 35 32 30 29 29 30 31 30 29 28 28 27
59 59 60 61 62 63 64 64 64 64 63 63 63 62 62 60 59 58 58 58 57 56 55 54 53 53 52 51 50 49 49 48 47 46 46 45 45 44 44 43 43 43 42 42 41 40 40 40 38 37 37 36 33 33 34 35 35 36 37 38 39 40 42 43 44 44 43 42 42 42 40 38 34 31 29 30 32 33 34 34 32 31 30 29 29
59 59 60 61 61 62 63 64 64 64 65 65 65 65 65 64 63 62 61 61 61 60 59 57 57 56 55 54 53 52 52 51 50 49 48 48 48 47 46 44 44 44 44 43 42 42 42 42 41 40 39 38 36 35 34 34 34 36 37 37 37 38 40 41 41 41 41 42 43 41 37 33 30 28 31 34 36 36 35 35 34 34 33 32 33
59 60 60 61 62 62 63 64 64 65 65 65 66 66 66 66 66 65 64 64 63 63 62 61 60 60 59 58 57 56 55 54 53 53 52 51 51 50 48 46 45 46 46 45 44 43 44 44 43 42 42 40 38 36 35 34 34 35 36 37 37 36 37 37 38 40 42 43 41 35 30 29 29 31 34 36 37 37 36 36 36 36 35 35 35
60 61 61 62 63 63 64 64 65 65 66 66 66 66 67 67 67 67 66 66 65 65 64 64 64 63 63 62 61 60 58 57 56 55 55 55 54 53 52 49 48 48 48 48 47 46 46 45 44 43 43 42 41 39 37 36 35 35 34 35 35 36 36 37 39 42 43 41 37 32 30 31 33 35 38 38 38 39 39 38 38 37 35 35 37
61 62 63 63 64 64 65 65 66 67 68 68 68 68 68 68 67 68 67 67 67 67 66 65 65 65 65 64 64 64 63 62 60 59 58 58 58 56 55 53 52 51 50 49 49 49 49 47 46 45 45 44 43 41 39 37 36 35 35 35 35 36 37 38 41 44 43 40 38 36 35 34 34 36 39 41 41 42 42 42 41 40 38 38 40
61 62 63 64 65 65 66 66 67 68 69 70 70 70 70 70 70 70 69 69 69 69 68 67 66 66 66 66 66 67 66 66 65 64 62 61 61 59 58 57 56 54 53 52 52 52 51 50 49 48 47 45 44 43 42 41 38 37 37 37 38 38 39 40 43 45 43 42 42 41 37 34 34 36 40 42 43 44 45 45 45 43 41 40 41
60 61 62 64 65 66 67 68 68 69 70 71 72 73 73 73 73 73 72 72 71 71 70 69 68 67 67 67 67 68 69 68 68 67 66 65 64 63 62 60 59 58 57 56 55 55 54 53 52 51 49 48 46 44 44 43 42 40 40 40 40 41 42 43 45 47 47 47 48 46 41 38 38 40 42 43 44 45 46 46 46 44 42 40 40
61 62 62 64 65 66 67 68 69 70 71 72 73 74 75 75 75 75 75 75 75 74 73 72 71 70 69 69 69 69 70 70 70 69 69 68 68 67 65 64 62 61 61 60 59 58 57 55 54 53 52 51 49 48 46 46 45 44 44 43 42 42 44 46 48 50 52 51 50 47 43 41 42 43 43 43 43 45 45 45 44 44 42 41 41
63 64 64 65 66 67 68 69 70 71 72 74 74 75 76 76 77 77 78 78 78 77 77 76 74 73 72 72 71 71 72 72 72 72 72 71 70 69 68 68 67 65 64 63 62 61 59 58 57 57 56 55 53 52 50 49 48 47 46 46 46 45 46 47 49 53 55 53 48 45 44 44 45 46 46 45 45 45 44 43 43 45 45 44 43
65 66 66 67 68 69 70 70 71 72 74 75 76 77 77 78 78 79 80 80 80 80 79 79 78 77 76 75 75 74 74 74 74 74 74 73 73 72 71 70 69 68 67 66 65 64 63 62 60 60 60 59 57 55 54 53 52 50 49 49 48 48 48 49 50 53 56 55 50 45 46 47 48 47 45 44 45 45 44 43 44 45 45 44 42
65 66 67 68 69 70 71 72 73 74 75 76 78 79 79 80 80 80 81 81 81 81 82 81 81 80 79 78 78 78 77 77 77 76 76 75 75 74 73 71 70 70 69 70 69 68 67 65 64 63 62 61 60 59 57 56 55 54 53 51 51 50 50 51 52 53 56 57 52 47 46 47 48 47 46 46 46 46 45 46 46 45 44 44 43
64 65 66 68 69 70 72 73 75 76 76 77 79 80 82 82 82 82 82 82 82 83 83 83 83 83 82 81 81 81 81 80 79 79 78 77 76 76 75 73 72 71 71 72 72 72 70 68 67 65 64 64 63 62 60 59 58 57 56 55 54 52 51 52 52 53 56 57 55 52 49 48 47 47 46 46 47 46 46 46 47 47 46 45 44
62 63 64 65 66 68 69 71 72 74 75 76 78 80 82 83 84 84 84 84 84 84 84 85 85 85 85 84 83 83 83 82 81 80 79 78 78 77 77 76 74 73 73 73 74 73 72 71 69 68 67 66 65 64 63 61 60 59 59 58 57 56 54 53 53 54 55 56 56 55 54 52 51 49 46 45 46 47 47 47 48 49 48 46 44
59 60 60 61 62 63 65 66 67 69 70 71 73 76 77 79 81 82 83 84 84 84 84 85 85 86 86 86 86 85 84 84 83 81 81 80 80 79 79 78 76 76 75 75 75 74 73 72 71 70 69 68 67 66 65 64 63 61 60 59 59 58 58 57 56 56 56 56 56 56 55 55 55 53 51 48 47 47 47 47 47 47 47 46 45
56 57 57 57 57 58 58 59 60 61 62 64 66 68 70 72 74 76 78 79 80 81 82 83 84 85 86 86 87 87 86 86 85 84 83 83 82 81 80 79 78 77 77 76 76 75 74 73 72 71 70 69 69 67 66 65 65 64 63 61 60 60 60 59 59 58 58 58 58 57 56 55 54 53 52 51 50 49 49 48 47 46 46 46 46
54 53 53 52 51 50 50 50 51 52 53 55 57 59 61 62 64 67 69 71 73 75 77 79 80 82 83 84 85 86 86 86 86 85 85 84 83 82 81 80 80 79 79 78 77 77 76 75 74 73 71 71 70 69 68 67 66 66 65 64 62 61 61 61 61 61 60 60 59 59 58 57 55 53 52 51 51 51 51 50 49 49 48 48 47
50 49 48 47 46 45 45 45 45 46 48 50 51 52 53 54 55 57 59 61 63 65 67 70 73 75 76 78 80 81 83 84 85 85 85 85 84 83 82 82 81 81 81 81 80 79 78 77 76 74 73 72 71 70 69 68 67 67 66 66 64 63 62 62 62 62 62 61 61 60 59 58 57 55 53 52 52 52 51 51 51 50 49 48 47
46 45 45 44 43 43 43 43 43 43 45 46 47 48 48 49 50 50 51 52 54 56 58 60 63 64 67 69 71 73 76 78 81 83 84 84 84 83 82 82 82 82 82 82 81 80 80 79 77 76 75 73 72 71 70 69 69 68 67 66 66 65 64 63 63 63 63 62 62 62 61 60 59 58 56 54 53 52 52 51 51 51 50 49 49
43 42 43 42 42 41 41 41 41 41 42 44 45 46 46 46 47 47 47 47 49 50 51 53 55 56 58 60 62 64 65 69 74 77 79 80 81 81 81 81 82 83 83 83 82 81 81 80 79 78 76 75 74 72 71 71 70 69 68 67 67 66 65 64 64 63 63 63 63 63 62 62 61 60 58 57 56 55 54 53 52 52 51 51 50
Wind_Direction
228 224 215 214 223 227 225 224 224 225 229 231 227 224 222 217 215 213 210 209 211 213 213 210 206 206 205 201 199 201 205 205 199 194 190 190 199 205 202 199 198 200 197 184 181 187 188 187 188 192 196 196 200 204 206 210 213 215 219 224 229 232 232 235 240 243 245 249 253 256 260 263 266 269 273 277 280 284 288 292 296 297 297 299 302
229 225 217 210 211 216 219 221 222 223 225 225 221 219 221 219 217 217 216 214 215 215 216 214 211 212 213 210 208 207 208 209 205 200 197 193 196 203 205 204 203 204 202 194 190 193 193 192 191 191 195 198 203 207 210 214 218 221 224 228 234 239 241 242 245 249 251 255 257 261 263 266 270 273 276 279 283 287 290 293 297 300 301 299 300
230 229 225 219 213 212 215 217 219 221 223 222 218 213 215 218 216 217 218 218 219 221 220 218 215 215 217 217 216 213 211 212 210 204 202 200 198 202 206 208 207 207 205 201 199 200 198 197 197 195 195 198 203 208 211 214 218 223 227 231 236 239 242 244 248 251 254 256 259 262 265 267 272 275 278 281 285 288 290 292 296 301 305 306 304
226 227 229 227 221 216 217 218 217 217 218 219 217 213 210 211 212 214 216 217 219 224 226 225 221 218 218 219 220 219 216 213 211 208 205 204 203 203 207 210 210 210 209 206 204 205 204 203 202 201 200 201 204 208 212 213 216 220 226 230 233 237 242 245 248 251 254 257 259 261 264 266 270 274 278 281 284 287 290 294 298 303 308 312 312
224 224 227 226 222 219 219 221 222 220 218 216 216 217 214 210 210 210 212 215 217 221 226 229 229 226 223 222 222 223 222 218 214 209 206 207 207 206 209 212 213 213 212 211 209 208 208 207 207 206 205 207 209 211 214 216 218 220 224 229 232 236 241 245 248 250 254 257 260 261 263 267 270 275 279 283 287 291 294 298 301 303 305 311 316
229 229 228 225 225 225 223 225 229 226 222 219 221 230 231 224 218 213 210 212 216 219 224 228 232 233 230 227 226 225 226 226 222 216 210 209 209 209 211 213 215 217 216 214 212 212 212 210 210 210 209 210 213 216 218 220 223 224 227 230 234 237 241 245 248 250 253 257 261 264 266 268 272 277 281 285 289 293 298 302 304 302 303 308 315
231 232 231 227 228 231 227 226 227 224 221 218 221 232 240 239 235 229 222 218 219 221 224 227 232 237 237 236 233 230 229 230 231 227 220 216 214 212 212 214 217 219 220 218 216 215 215 214 213 212 212 212 215 218 221 223 225 227 229 232 235 238 242 245 249 252 255 258 261 265 268 270 272 276 282 287 290 294 299 302 302 302 303 307 312
235 235 234 230 227 227 225 225 226 224 220 218 218 222 231 236 238 238 237 236 233 231 232 231 233 237 241 241 240 238 236 236 237 236 232 226 223 220 217 217 219 221 221 221 221 220 218 218 218 217 216 215 216 219 221 223 226 228 230 232 235 238 240 244 247 250 254 257 260 263 267 269 270 274 280 286 290 292 294 294 295 297 301 304 307
250 244 237 231 226 224 225 228 232 229 222 220 219 219 224 229 231 233 238 242 242 241 241 241 240 241 242 242 241 239 238 239 241 241 240 236 232 229 226 223 223 225 225 224 225 225 224 222 222 221 220 220 220 221 222 224 226 228 229 231 233 236 238 241 244 247 250 254 258 262 265 268 270 273 278 282 284 284 284 285 287 291 296 300 303
260 256 239 231 228 226 228 231 234 231 226 223 219 217 221 226 228 231 236 238 241 243 241 240 242 245 244 240 239 237 235 237 239 241 243 243 240 237 234 231 229 229 229 229 228 229 229 228 226 225 225 224 224 226 226 227 228 229 229 230 232 234 237 239 242 245 249 253 258 262 264 266 269 272 275 277 279 278 279 281 285 289 294 299 303
251 249 240 234 231 228 230 231 230 228 226 224 219 216 221 226 229 235 240 239 239 242 241 238 237 240 241 237 232 231 231 232 234 237 240 241 242 241 240 238 235 233 232 230 230 231 231 231 231 230 230 230 229 229 229 230 231 231 230 230 232 234 237 240 243 246 249 252 256 259 261 264 269 271 271 273 276 278 279 280 283 286 290 295 298
242 241 241 240 237 235 236 235 230 226 225 222 219 218 220 225 230 235 238 237 236 238 241 243 240 238 242 243 238 233 231 230 229 231 234 236 238 239 240 239 237 236 234 232 231 231 231 233 234 233 234 235 235 234 232 232 233 234 234 232 232 234 237 240 243 245 247 248 251 255 258 263 270 273 271 270 273 276 278 279 279 280 281 284 287
246 243 242 243 244 246 249 243 232 226 224 223 224 223 221 223 228 233 235 235 233 234 237 242 243 239 238 241 244 242 239 237 234 232 233 234 234 235 237 239 238 236 236 234 233 231 231 232 233 234 234 235 237 239 237 236 235 237 237 236 234 235 237 240 243 245 246 246 250 258 262 263 266 270 271 270 270 273 276 278 278 279 279 280 283
256 253 250 249 250 253 257 254 242 231 226 223 223 225 224 225 230 235 236 235 233 234 234 236 239 238 234 233 237 242 244 243 240 238 237 237 235 233 233 236 239 239 238 236 234 232 231 231 232 233 234 234 236 238 240 240 239 238 239 239 239 239 239 241 243 246 248 249 251 259 265 266 267 270 273 274 272 272 272 273 275 276 277 278 280
259 259 257 255 255 254 257 258 253 247 241 234 232 233 231 231 233 235 235 233 233 235 235 234 234 236 235 233 234 237 241 242 240 238 238 238 238 235 232 232 235 238 240 240 238 235 233 232 232 233 235 235 236 237 239 240 241 241 241 240 240 242 244 245 247 248 251 253 254 258 264 269 271 273 276 278 277 276 274 273 273 272 272 275 278
260 261 261 259 258 257 257 258 257 255 254 251 251 252 249 245 241 238 234 233 234 235 234 232 232 235 237 236 235 235 237 239 238 236 235 236 238 238 236 233 231 234 238 240 240 239 237 235 234 235 236 237 238 238 239 240 242 244 245 244 242 242 245 250 254 254 255 257 258 260 264 269 272 274 275 277 278 278 277 278 277 274 272 275 278
260 262 262 262 262 261 260 259 257 257 259 260 260 260 260 257 253 246 240 238 238 237 234 231 230 231 234 236 236 235 236 238 238 237 237 237 238 240 241 239 236 235 238 240 241 241 240 238 237 236 237 239 240 241 242 243 244 246 249 251 251 248 249 253 258 260 261 262 264 265 267 270 273 276 277 279 280 279 279 280 279 278 279 281 281
259 260 261 262 262 263 263 261 259 259 261 263 262 259 259 260 259 255 249 245 243 240 237 235 233 232 232 234 235 234 236 239 240 242 242 242 240 241 245 248 247 246 246 246 245 245 245 244 242 240 240 242 243 245 247 249 250 252 254 256 259 261 262 262 262 264 267 270 271 272 272 273 274 276 277 278 279 278 277 277 278 280 284 286 285
255 257 259 260 261 262 264 264 263 262 262 262 262 259 257 260 262 259 256 254 252 248 243 240 239 239 239 239 238 236 236 238 241 244 246 245 241 238 239 244 247 249 250 248 247 248 249 250 249 248 246 247 248 250 252 255 257 258 260 262 264 266 266 266 269 272 274 276 278 279 279 279 279 278 278 278 277 277 276 277 278 281 283 284 284
253 255 257 258 260 261 262 263 264 263 263 262 262 260 258 259 261 260 258 257 255 251 248 245 242 242 243 243 243 241 239 239 240 241 243 242 240 237 237 238 239 241 244 245 245 246 248 250 252 252 252 252 253 254 255 258 259 260 262 265 266 264 264 267 272 275 277 279 281 282 283 282 281 280 279 279 278 277 278 280 282 282 282 282 281
253 255 256 258 259 260 261 262 263 264 264 264 263 261 259 259 259 260 261 261 257 251 249 248 245 243 244 246 246 245 244 243 242 241 241 241 240 240 242 244 244 244 244 246 246 247 248 249 251 252 253 254 255 257 258 259 260 261 262 264 264 263 264 267 271 273 277 280 282 282 282 281 279 278 277 276 276 278 281 284 285 285 285 283 280
253 254 255 256 258 260 260 261 263 264 265 265 264 263 261 260 260 261 262 263 262 258 255 254 252 249 247 248 249 249 247 247 246 246 244 243 242 243 243 245 247 248 248 248 249 250 251 250 251 253 255 256 256 258 259 260 261 262 262 263 263 263 264 266 269 273 276 278 278 279 278 277 276 276 275 276 277 280 284 287 289 289 287 284 280
252 253 253 254 255 257 259 260 262 263 265 266 266 265 264 262 262 261 261 260 261 260 260 260 259 257 254 253 253 253 251 249 248 248 249 248 247 246 245 244 245 247 248 250 251 252 252 252 251 252 255 256 257 258 259 261 262 264 264 264 265 266 267 268 270 272 274 275 276 276 276 275 274 275 276 277 279 283 286 288 288 286 285 284 283
252 253 253 253 253 254 255 257 259 261 263 264 266 266 266 264 263 262 260 259 258 258 258 259 260 260 259 257 255 254 253 252 250 248 249 250 250 250 250 249 247 248 250 252 253 253 253 253 253 253 254 256 257 259 260 262 264 265 265 266 267 268 269 270 271 271 272 274 276 275 275 275 276 276 278 279 281 283 284 284 284 283 284 285 285
252 253 253 254 254 254 254 255 256 257 259 261 263 265 266 266 265 264 262 260 259 258 258 259 259 259 258 257 257 257 255 254 253 250 248 247 249 251 252 252 251 251 252 254 255 255 255 255 255 255 256 256 257 258 259 261 262 263 264 264 264 265 266 267 268 269 270 272 274 275 275 276 276 277 278 280 282 282 281 280 280 281 282 282 283
254 253 254 254 255 255 255 255 255 256 256 258 260 262 264 265 266 266 265 264 262 261 260 260 260 259 257 255 256 258 258 257 255 253 249 247 247 250 252 253 252 252 253 254 255 255 256 256 257 257 258 259 259 258 258 258 258 260 261 262 262 263 263 264 264 265 267 269 271 272 273 273 274 276 277 279 281 281 279 277 277 276 276 276 277
256 255 255 254 255 255 255 256 256 256 256 257 257 259 261 262 263 265 266 266 265 263 262 260 259 258 256 254 254 256 258 258 257 254 252 249 247 248 250 251 251 251 253 254 255 255 256 257 257 258 258 260 261 261 260 260 260 260 261 262 262 263 263 263 264 264 265 266 267 268 268 270 272 274 275 277 278 277 276 275 274 273 273 273 274
259 258 257 256 255 255 255 255 256 256 257 257 257 257 258 259 261 261 263 264 264 263 262 261 259 257 256 255 254 254 254 255 255 254 252 251 249 248 249 250 251 252 253 254 255 256 257 258 259 259 259 260 262 264 264 263 263 263 263 262 262 262 262 263 263 264 263 263 263 264 265 267 269 270 271 273 273 272 272 272 271 271 272 274 275
258 259 259 258 257 257 256 255 255 255 256 256 256 256 256 257 258 259 260 261 262 262 262 261 260 259 257 255 254 254 253 254 255 254 253 252 251 251 252 253 254 254 254 254 255 257 259 260 261 262 261 260 260 261 263 263 262 262 262 262 261 261 261 262 263 263 263 262 262 263 264 265 266 266 267 268 268 268 268 270 270 270 271 274 274
257 258 258 258 258 258 257 257 256 256 256 256 256 256 256 256 256 257 257 258 260 261 261 261 261 260 259 257 256 255 254 254 255 255 255 254 254 253 253 255 256 256 255 255 255 257 260 261 261 263 263 261 259 258 259 261 261 261 261 260 260 260 261 262 263 262 261 261 262 262 262 263 263 263 263 263 264 265 267 269 270 271 273 274 274
258 258 258 258 258 258 257 257 257 257 257 257 256 256 256 256 256 256 256 256 257 258 259 260 261 261 261 260 258 257 256 254 254 254 255 255 255 254 254 255 257 258 259 259 258 259 261 261 261 262 263 264 262 258 256 258 261 261 259 258 257 258 260 260 260 260 260 260 260 259 259 259 259 259 260 260 262 264 267 269 271 272 273 274 275
258 258 259 259 259 259 259 258 258 258 257 257 257 257 256 256 256 257 256 256 255 256 256 257 258 260 260 260 260 259 258 256 255 254 254 254 254 254 254 255 257 258 260 262 262 262 262 262 263 264 264 265 264 261 257 257 260 261 260 258 257 257 258 258 258 258 257 257 256 255 254 254 254 255 258 261 263 265 268 271 272 272 272 273 274
258 258 259 259 260 260 260 260 260 259 259 258 258 258 258 257 256 256 257 257 256 255 255 255 255 256 257 258 258 259 259 258 257 256 255 255 254 253 252 253 255 257 258 260 261 262 263 263 264 265 265 264 264 263 261 260 259 259 259 259 260 260 260 260 259 257 256 255 254 252 250 250 253 257 263 266 267 269 271 272 272 271 272 273 273
258 258 258 259 259 259 260 260 260 260 260 260 259 259 259 259 258 257 257 257 257 256 256 255 254 254 255 255 255 256 257 258 258 257 256 256 256 255 253 252 253 254 255 256 257 259 261 262 263 264 264 263 263 262 262 261 259 257 257 258 261 262 261 260 259 257 255 254 251 249 250 256 262 265 266 267 267 268 269 269 268 269 270 271 272
259 259 259 258 258 258 259 259 260 260 260 260 260 260 260 260 260 259 258 258 258 258 257 256 255 254 254 254 254 254 254 255 256 257 257 257 256 256 255 254 253 254 254 255 255 256 258 260 261 262 263 263 262 261 260 260 260 260 258 257 258 259 258 257 257 257 255 253 251 251 258 266 266 263 261 261 262 262 262 262 264 267 270 272 275
259 259 260 260 259 259 259 259 259 259 259 259 259 260 260 260 260 260 259 259 258 258 258 258 257 256 255 254 254 254 253 253 254 255 256 256 257 257 256 255 254 254 255 255 256 256 256 257 258 260 261 262 262 261 260 258 258 260 259 256 255 256 255 255 255 256 256 257 257 255 256 256 256 256 258 260 261 262 263 265 267 270 273 276 279
259 259 260 260 260 260 260 260 260 259 259 259 259 258 258 258 258 258 259 259 258 258 257 257 257 258 257 256 255 254 253 252 252 252 253 254 256 256 256 256 255 255 255 256 256 256 257 257 258 258 259 260 261 261 260 258 255 256 257 256 255 254 254 255 256 257 257 258 258 255 252 249 250 254 258 261 264 267 269 272 274 275 277 279 281
260 260 260 260 261 261 261 261 261 260 260 260 259 259 258 258 258 257 257 257 257 257 257 257 256 257 257 257 257 255 254 253 252 251 252 252 254 254 255 255 255 255 255 255 256 256 257 257 258 258 258 259 260 260 261 259 256 253 253 253 254 254 254 255 258 260 259 258 256 255 254 255 257 258 260 262 265 268 271 273 275 276 277 279 281
262 262 262 262 262 261 261 261 261 261 261 261 261 260 260 259 259 258 257 257 256 256 256 256 256 256 256 256 256 257 256 255 253 252 251 251 252 253 253 253 254 254 255 254 255 255 256 257 258 259 259 260 260 260 260 260 258 255 252 250 251 253 254 255 256 258 258 257 257 257 258 261 263 263 263 263 266 269 271 272 274 276 278 279 279
264 264 264 263 263 263 263 262 262 262 262 261 261 261 261 261 260 260 259 258 257 256 256 255 255 255 255 254 254 255 256 256 255 254 253 251 251 251 251 252 252 253 253 254 254 255 255 256 258 259 260 260 260 259 258 258 258 257 255 252 250 251 253 254 256 257 257 257 259 262 264 264 263 262 261 262 265 268 270 272 274 276 277 277 276
266 266 265 265 265 265 264 264 264 264 263 262 262 261 261 261 261 261 260 259 259 258 257 256 255 255 254 254 254 254 254 255 255 255 254 253 252 251 251 251 251 251 252 253 253 254 254 255 255 257 258 258 258 258 258 258 257 257 257 256 253 251 251 253 256 258 260 260 262 264 266 265 264 264 264 264 265 267 269 270 272 272 273 273 273
267 267 267 267 267 267 266 266 266 265 265 264 264 263 262 261 261 261 261 260 260 259 258 257 256 255 254 254 254 253 253 253 254 254 255 255 254 253 251 251 251 251 251 252 252 252 252 253 253 254 256 257 257 258 258 258 258 258 258 257 257 255 254 254 256 259 262 264 265 266 267 267 266 266 267 268 267 268 269 269 270 272 275 277 278
267 268 268 268 268 268 268 267 267 266 266 266 265 264 263 262 261 261 261 260 260 260 259 259 258 257 255 254 254 253 253 253 253 253 254 254 254 254 254 252 252 251 251 251 251 251 251 251 252 252 253 255 256 257 257 258 258 258 258 258 258 258 257 256 257 259 263 266 266 266 267 267 266 266 267 268 268 268 269 271 273 275 278 280 280
269 269 269 269 269 269 269 269 268 267 267 267 266 265 265 263 262 262 261 261 260 260 260 259 258 258 257 256 255 254 253 253 253 253 253 253 254 255 255 254 253 252 251 251 251 251 251 251 251 251 252 253 254 255 256 257 257 258 258 258 259 258 258 258 258 259 262 265 267 266 266 267 268 269 270 270 270 269 270 271 273 274 274 275 275
270 270 270 270 269 269 269 269 269 268 268 267 266 266 265 264 263 262 261 261 260 260 260 259 259 258 257 256 256 255 254 254 253 253 253 253 253 253 254 253 253 252 251 251 251 251 251 251 251 251 251 252 252 253 254 255 256 256 257 258 258 258 258 259 259 260 261 264 266 266 266 267 268 269 269 270 271 271 272 272 272 273 273 273 273
272 272 271 271 270 269 268 268 267 267 266 266 265 264 264 263 263 262 261 261 260 259 259 259 258 258 257 257 256 255 254 254 253 252 252 252 251 251 252 252 252 252 251 251 251 251 251 251 251 251 251 251 251 252 252 253 254 255 256 256 257 258 258 258 259 259 260 261 263 265 266 267 268 269 270 271 271 272 272 272 272 272 273 274 275
273 274 274 273 271 270 268 267 266 265 264 263 263 263 262 262 261 260 260 259 259 258 258 257 257 257 256 256 256 255 254 254 254 253 252 251 251 250 250 250 250 250 251 251 251 251 251 251 250 250 251 251 251 251 251 252 252 253 254 254 255 256 257 258 258 259 260 260 261 263 264 266 267 268 270 271 271 272 272 272 270 269 270 271 273
275 276 275 274 271 269 267 265 264 263 263 262 262 262 261 261 260 259 259 258 258 257 256 256 255 255 255 254 254 254 254 254 253 253 252 251 250 250 249 249 249 249 250 250 251 251 251 251 250 250 250 250 251 251 251 251 251 252 253 253 254 254 255 256 257 259 260 260 261 262 263 265 266 267 268 269 269 270 271 271 270 270 270 270 271
277 276 274 272 270 268 266 265 264 263 263 262 262 262 262 261 260 259 258 257 257 256 255 255 254 253 253 253 253 252 252 252 251 251 250 250 249 248 248 248 248 248 248 249 249 250 250 250 250 250 249 249 250 250 251 251 251 252 252 253 253 253 254 254 255 257 258 260 261 262 263 264 265 266 267 268 268 268 269 269 270 271 272 272 273
277 275 273 271 269 268 267 266 265 264 263 263 263 263 263 262 261 260 258 257 256 255 255 255 254 253 252 252 251 251 251 250 249 248 248 248 248 248 247 247 247 247 247 247 247 248 248 249 249 250 249 249 249 249 250 251 251 252 252 252 253 253 254 254 254 255 256 258 259 260 261 263 264 264 265 266 267 267 268 268 268 269 270 271 272
277 275 273 272 271 271 270 270 268 266 265 264 264 264 265 264 263 262 260 259 258 256 255 255 254 252 251 250 249 249 249 248 247 246 246 246 246 245 245 245 244 244 245 245 245 245 246 247 248 248 249 249 249 248 249 249 250 251 251 252 252 253 254 254 254 254 255 256 257 258 259 261 262 263 264 264 265 266 267 267 267 267 268 269 270
Height
5938 5939 5939 5940 5942 5944 5945 5947 5949 5951 5952 5953 5954 5956 5957 5957 5958 5959 5960 5960 5962 5963 5964 5965 5966 5966 5966 5967 5968 5969 5970 5971 5972 5973 5974 5975 5976 5976 5977 5978 5978 5979 5979 5980 5980 5981 5981 5982 5982 5983 5984 5984 5985 5986 5986 5987 5987 5988 5989 5989 5989 5990 5990 5990 5990 5990 5990 5990 5990 5989 5989 5988 5988 5987 5987 5986 5986 5985 5985 5984 5983 5983 5982 5981 5979
5935 5936 5937 5938 5940 5942 5943 5944 5946 5948 5950 5951 5952 5954 5955 5956 5957 5958 5959 5959 5960 5961 5962 5964 5965 5965 5966 5966 5967 5968 5969 5970 5971 5972 5973 5973 5974 5975 5976 5977 5977 5978 5978 5979 5980 5980 5981 5981 5981 5982 5983 5983 5984 5985 5985 5986 5987 5987 5988 5988 5988 5989 5989 5989 5989 5989 5989 5989 5989 5989 5988 5988 5987 5987 5986 5985 5985 5984 5984 5983 5982 5982 5982 5981 5979
5933 5935 5936 5936 5937 5939 5940 5941 5943 5945 5947 5949 5950 5951 5952 5954 5955 5956 5957 5958 5959 5960 5961 5962 5963 5964 5965 5965 5965 5966 5967 5968 5969 5970 5971 5972 5973 5974 5975 5976 5976 5977 5977 5978 5979 5980 5980 5980 5981 5981 5982 5982 5983 5984 5984 5985 5985 5986 5986 5987 5987 5988 5988 5988 5988 5988 5988 5988 5988 5987 5987 5987 5986 5986 5985 5984 5984 5983 5983 5982 5981 5981 5981 5980 5979
5931 5932 5933 5934 5935 5936 5938 5939 5940 5941 5943 5945 5946 5947 5949 5950 5952 5953 5954 5956 5957 5958 5960 5961 5962 5963 5963 5964 5964 5965 5966 5967 5968 5969 5970 5971 5971 5972 5973 5974 5975 5976 5976 5977 5978 5979 5979 5980 5980 5980 5981 5982 5982 5983 5983 5984 5984 5985 5985 5985 5986 5986 5986 5986 5987 5987 5987 5986 5986 5986 5986 5986 5985 5985 5984 5983 5983 5982 5982 5981 5981 5980 5979 5979 5978
5928 5929 5929 5931 5933 5934 5935 5937 5939 5940 5941 5943 5945 5946 5947 5948 5948 5949 5951 5953 5955 5956 5958 5959 5960 5961 5962 5963 5963 5964 5965 5965 5966 5967 5968 5969 5970 5970 5971 5972 5973 5974 5975 5976 5977 5978 5978 5979 5979 5979 5980 5981 5981 5982 5982 5982 5983 5983 5984 5984 5984 5985 5985 5985 5985 5985 5985 5985 5985 5985 5985 5985 5984 5983 5983 5982 5982 5981 5981 5980 5980 5979 5978 5977 5977
5926 5926 5927 5930 5933 5934 5935 5937 5940 5941 5943 5947 5949 5949 5948 5949 5949 5948 5949 5950 5952 5954 5956 5957 5958 5959 5960 5961 5962 5963 5964 5965 5965 5966 5967 5968 5968 5969 5969 5970 5971 5972 5973 5974 5975 5976 5977 5977 5978 5978 5979 5980 5980 5980 5981 5981 5982 5982 5982 5983 5983 5983 5983 5983 5984 5984 5984 5984 5984 5984 5984 5983 5983 5982 5982 5982 5981 5981 5980 5980 5979 5978 5977 5976 5976
5924 5924 5925 5928 5930 5932 5934 5936 5938 5940 5943 5946 5948 5949 5949 5950 5950 5950 5950 5950 5951 5952 5953 5955 5957 5958 5959 5960 5961 5962 5963 5964 5965 5965 5966 5967 5967 5967 5968 5968 5969 5970 5971 5972 5973 5974 5975 5976 5976 5977 5978 5978 5979 5979 5979 5980 5980 5981 5981 5981 5981 5981 5982 5982 5982 5982 5982 5982 5982 5982 5982 5983 5982 5982 5981 5981 5981 5980 5980 5979 5978 5977 5976 5975 5975
5921 5922 5923 5925 5927 5929 5931 5933 5935 5938 5940 5942 5944 5946 5947 5948 5949 5950 5951 5951 5951 5952 5952 5954 5955 5956 5958 5959 5960 5961 5962 5963 5964 5964 5965 5966 5966 5966 5967 5967 5968 5968 5969 5970 5971 5972 5973 5974 5975 5975 5976 5977 5977 5977 5977 5978 5978 5979 5979 5979 5979 5980 5980 5980 5980 5981 5981 5981 5981 5981 5981 5981 5981 5981 5981 5981 5980 5980 5979 5978 5977 5976 5975 5974 5973
5919 5920 5921 5923 5925 5927 5929 5932 5934 5936 5937 5938 5940 5942 5944 5945 5946 5948 5949 5950 5951 5951 5952 5953 5954 5955 5956 5957 5958 5959 5960 5961 5962 5963 5964 5964 5965 5965 5966 5966 5967 5967 5968 5969 5970 5971 5971 5972 5973 5974 5974 5975 5975 5975 5976 5976 5976 5977 5977 5977 5978 5978 5978 5979 5979 5979 5979 5980 5980 5980 5981 5980 5980 5980 5980 5980 5979 5979 5978 5977 5976 5975 5975 5974 5972
5919 5920 5921 5922 5924 5926 5928 5930 5932 5933 5933 5934 5936 5939 5940 5942 5944 5946 5947 5948 5949 5950 5951 5952 5953 5953 5954 5956 5957 5957 5958 5958 5959 5960 5961 5963 5964 5964 5965 5965 5965 5966 5967 5968 5968 5969 5970 5970 5971 5972 5972 5973 5973 5974 5974 5974 5974 5975 5975 5976 5976 5976 5977 5977 5977 5978 5978 5978 5979 5979 5979 5979 5979 5979 5979 5978 5978 5978 5977 5976 5976 5975 5974 5973 5971
5918 5919 5920 5921 5923 5925 5927 5928 5929 5930 5930 5931 5933 5936 5939 5940 5943 5944 5945 5946 5947 5948 5950 5951 5951 5951 5952 5953 5954 5955 5955 5956 5956 5957 5958 5960 5962 5963 5963 5964 5964 5964 5965 5966 5967 5967 5968 5969 5969 5970 5970 5971 5971 5971 5972 5972 5972 5973 5973 5974 5974 5975 5975 5975 5976 5976 5976 5977 5977 5977 5977 5977 5977 5977 5977 5977 5977 5976 5976 5975 5974 5974 5973 5972 5971
5917 5918 5920 5921 5922 5923 5925 5926 5927 5927 5928 5930 5932 5934 5936 5938 5940 5940 5941 5942 5943 5945 5948 5949 5950 5950 5950 5951 5952 5953 5953 5953 5953 5954 5954 5956 5958 5959 5961 5962 5962 5963 5963 5964 5964 5965 5966 5967 5967 5968 5969 5969 5969 5969 5970 5970 5970 5971 5971 5972 5972 5973 5973 5973 5974 5974 5975 5975 5975 5975 5975 5975 5975 5975 5975 5975 5975 5974 5974 5973 5973 5972 5972 5971 5970
5915 5917 5918 5920 5921 5921 5922 5923 5925 5926 5927 5929 5930 5931 5932 5933 5934 5935 5936 5938 5940 5942 5944 5946 5948 5948 5948 5949 5949 5950 5951 5952 5952 5952 5951 5952 5953 5955 5957 5958 5960 5960 5961 5961 5962 5962 5963 5964 5965 5966 5966 5966 5966 5966 5967 5967 5968 5968 5969 5970 5970 5971 5971 5972 5972 5972 5972 5973 5973 5973 5973 5974 5974 5973 5973 5973 5973 5973 5972 5971 5971 5970 5969 5969 5968
5911 5913 5916 5917 5919 5920 5921 5922 5923 5924 5926 5927 5929 5929 5928 5928 5930 5931 5933 5936 5937 5939 5940 5942 5944 5944 5945 5946 5946 5947 5948 5949 5950 5950 5949 5949 5949 5951 5953 5955 5956 5958 5958 5959 5959 5960 5960 5961 5962 5962 5963 5963 5963 5963 5964 5964 5965 5966 5966 5967 5968 5969 5969 5969 5970 5970 5970 5971 5972 5971 5971 5971 5972 5971 5971 5971 5971 5970 5970 5969 5968 5967 5967 5966 5965
5907 5909 5912 5914 5916 5917 5918 5920 5921 5922 5923 5925 5926 5926 5925 5925 5927 5929 5930 5932 5934 5935 5937 5938 5939 5940 5941 5942 5943 5944 5944 5945 5945 5946 5946 5946 5946 5947 5949 5951 5953 5954 5956 5956 5957 5957 5958 5958 5959 5959 5960 5960 5960 5960 5961 5961 5962 5963 5964 5965 5966 5966 5967 5967 5967 5967 5968 5968 5969 5969 5969 5969 5969 5969 5968 5968 5968 5967 5967 5966 5966 5964 5964 5963 5963
5903 5905 5907 5909 5911 5913 5915 5916 5917 5918 5920 5922 5922 5921 5921 5923 5925 5926 5927 5929 5930 5931 5933 5934 5935 5936 5937 5938 5939 5940 5940 5940 5940 5941 5942 5942 5943 5944 5946 5948 5949 5951 5952 5953 5954 5955 5955 5956 5956 5957 5957 5957 5958 5958 5958 5958 5959 5961 5961 5962 5963 5964 5965 5965 5964 5965 5966 5966 5967 5967 5967 5967 5966 5966 5966 5965 5964 5964 5963 5963 5962 5960 5960 5960 5960
5899 5901 5902 5904 5906 5908 5910 5911 5913 5914 5915 5917 5918 5918 5919 5920 5922 5924 5925 5926 5927 5928 5929 5929 5930 5930 5931 5932 5934 5935 5936 5935 5936 5938 5940 5941 5941 5942 5944 5945 5947 5948 5949 5950 5951 5952 5953 5953 5954 5954 5955 5955 5955 5955 5955 5956 5957 5959 5959 5960 5961 5962 5963 5963 5962 5962 5963 5963 5964 5964 5964 5964 5964 5963 5963 5962 5961 5960 5959 5959 5958 5956 5956 5957 5956
5895 5896 5898 5900 5902 5903 5905 5906 5908 5910 5911 5913 5914 5916 5917 5918 5918 5920 5921 5922 5923 5924 5925 5925 5926 5926 5927 5928 5929 5931 5931 5932 5935 5939 5940 5941 5941 5941 5942 5944 5945 5946 5947 5948 5949 5949 5950 5951 5951 5952 5952 5952 5952 5953 5953 5954 5956 5957 5958 5958 5959 5961 5961 5960 5959 5960 5960 5960 5961 5962 5962 5961 5961 5960 5960 5959 5957 5956 5955 5955 5954 5952 5953 5953 5953
5890 5892 5894 5895 5897 5898 5900 5901 5903 5905 5908 5909 5911 5913 5914 5915 5915 5916 5918 5919 5920 5921 5922 5923 5923 5924 5924 5925 5926 5927 5929 5932 5935 5937 5938 5937 5938 5938 5937 5938 5939 5941 5942 5943 5944 5946 5947 5948 5948 5949 5950 5950 5950 5950 5951 5952 5954 5955 5956 5957 5958 5960 5959 5956 5956 5957 5958 5958 5958 5958 5958 5958 5957 5957 5956 5955 5953 5952 5951 5951 5951 5950 5950 5950 5949
5886 5887 5889 5890 5892 5894 5895 5896 5898 5900 5903 5905 5907 5909 5911 5912 5912 5913 5914 5916 5917 5918 5919 5920 5920 5920 5921 5921 5922 5925 5928 5931 5933 5932 5931 5931 5931 5931 5930 5929 5930 5933 5935 5937 5939 5941 5943 5944 5944 5945 5946 5946 5947 5948 5948 5949 5951 5952 5952 5954 5956 5956 5955 5953 5954 5955 5955 5955 5955 5955 5955 5954 5953 5952 5952 5950 5949 5948 5947 5947 5947 5947 5947 5947 5946
5880 5882 5884 5885 5886 5888 5889 5891 5892 5894 5897 5899 5902 5905 5906 5908 5909 5910 5911 5912 5913 5914 5915 5916 5917 5917 5918 5918 5919 5923 5926 5927 5927 5925 5924 5925 5926 5927 5928 5927 5928 5929 5931 5934 5936 5938 5939 5940 5940 5941 5941 5942 5943 5944 5945 5945 5946 5947 5949 5950 5951 5951 5950 5950 5951 5951 5951 5952 5952 5952 5951 5950 5950 5949 5948 5946 5945 5944 5944 5944 5944 5943 5943 5944 5943
5874 5876 5878 5880 5881 5882 5884 5885 5886 5888 5890 5893 5895 5899 5901 5903 5904 5906 5907 5908 5909 5910 5911 5913 5914 5914 5914 5915 5916 5919 5922 5922 5920 5919 5920 5921 5922 5924 5925 5925 5925 5926 5929 5931 5933 5935 5936 5936 5937 5937 5938 5938 5939 5940 5941 5941 5942 5943 5944 5945 5945 5945 5945 5946 5946 5947 5947 5948 5948 5948 5947 5946 5945 5944 5943 5942 5941 5940 5940 5940 5940 5939 5939 5939 5939
5868 5871 5873 5875 5877 5878 5879 5880 5881 5882 5884 5885 5888 5891 5895 5897 5899 5901 5903 5904 5905 5906 5908 5909 5910 5911 5911 5912 5913 5916 5917 5917 5916 5916 5916 5917 5919 5919 5920 5921 5922 5923 5925 5927 5929 5930 5931 5932 5933 5934 5934 5934 5935 5936 5936 5937 5938 5939 5940 5940 5941 5941 5941 5941 5942 5942 5942 5942 5943 5943 5942 5941 5940 5940 5939 5939 5938 5937 5937 5937 5936 5935 5934 5934 5934
5863 5865 5867 5869 5871 5873 5874 5875 5876 5877 5878 5879 5881 5883 5886 5890 5893 5895 5898 5900 5901 5902 5903 5905 5906 5907 5908 5908 5910 5911 5912 5912 5913 5913 5913 5914 5915 5915 5916 5917 5919 5921 5923 5924 5925 5925 5926 5928 5929 5930 5930 5930 5931 5932 5933 5933 5934 5935 5936 5936 5937 5937 5937 5937 5938 5937 5937 5938 5938 5937 5936 5935 5935 5935 5935 5934 5934 5934 5934 5933 5932 5930 5929 5929 5929
5857 5858 5860 5862 5864 5866 5868 5870 5872 5873 5874 5875 5876 5877 5879 5881 5884 5887 5890 5893 5895 5896 5898 5899 5901 5903 5904 5905 5906 5907 5908 5908 5908 5909 5910 5910 5910 5911 5912 5913 5916 5918 5920 5921 5921 5921 5922 5924 5925 5926 5926 5926 5927 5928 5929 5929 5929 5930 5930 5931 5932 5932 5932 5932 5932 5932 5932 5933 5932 5932 5931 5930 5929 5929 5930 5929 5930 5930 5929 5929 5928 5926 5926 5925 5925
5850 5852 5854 5856 5857 5859 5861 5863 5865 5867 5869 5870 5871 5872 5873 5875 5877 5879 5882 5885 5888 5890 5892 5894 5896 5898 5899 5900 5901 5902 5902 5903 5904 5905 5905 5906 5906 5907 5908 5909 5911 5913 5915 5916 5916 5917 5918 5919 5920 5921 5922 5922 5922 5923 5923 5924 5924 5925 5925 5925 5925 5926 5926 5926 5926 5926 5926 5927 5927 5926 5925 5924 5923 5924 5924 5924 5925 5924 5924 5923 5923 5923 5922 5922 5922
5842 5845 5847 5849 5851 5852 5854 5856 5858 5860 5862 5864 5866 5867 5868 5870 5871 5873 5875 5878 5881 5883 5886 5888 5890 5891 5893 5894 5895 5896 5898 5898 5899 5900 5901 5901 5902 5902 5903 5905 5906 5908 5910 5911 5911 5912 5913 5914 5915 5916 5917 5917 5918 5918 5919 5919 5920 5920 5920 5920 5920 5921 5921 5920 5920 5920 5921 5921 5921 5920 5919 5918 5918 5919 5918 5919 5919 5919 5917 5917 5918 5918 5918 5918 5920
5835 5837 5839 5842 5844 5846 5847 5849 5851 5852 5855 5857 5859 5861 5863 5864 5866 5868 5869 5871 5874 5876 5878 5881 5883 5885 5887 5888 5889 5891 5892 5893 5893 5895 5896 5896 5897 5898 5899 5900 5901 5903 5904 5905 5906 5907 5908 5909 5910 5911 5912 5912 5913 5913 5914 5914 5915 5915 5915 5914 5914 5915 5915 5914 5914 5915 5915 5914 5914 5914 5913 5913 5913 5913 5913 5913 5913 5912 5911 5912 5913 5914 5914 5915 5917
5828 5830 5831 5834 5836 5838 5840 5842 5844 5845 5847 5849 5852 5854 5856 5858 5860 5862 5863 5865 5867 5869 5871 5873 5875 5877 5880 5882 5883 5885 5886 5887 5887 5889 5890 5891 5892 5894 5895 5895 5896 5897 5898 5899 5900 5902 5903 5904 5906 5906 5906 5907 5908 5908 5909 5909 5909 5909 5909 5908 5908 5909 5909 5909 5909 5910 5909 5908 5908 5908 5907 5907 5908 5908 5908 5908 5908 5907 5906 5908 5909 5910 5911 5911 5913
5820 5822 5824 5826 5828 5830 5832 5834 5836 5838 5840 5842 5844 5846 5848 5850 5853 5855 5857 5859 5860 5862 5864 5866 5868 5869 5872 5874 5876 5878 5880 5881 5881 5882 5883 5885 5887 5888 5890 5890 5891 5891 5892 5893 5896 5898 5899 5900 5901 5901 5901 5901 5902 5903 5903 5903 5903 5903 5903 5902 5902 5903 5903 5903 5903 5903 5903 5902 5902 5902 5902 5902 5903 5903 5903 5903 5903 5903 5904 5905 5905 5906 5906 5907 5908
5812 5813 5815 5817 5819 5821 5823 5826 5828 5830 5832 5834 5836 5839 5841 5843 5845 5847 5850 5852 5854 5855 5857 5859 5861 5862 5864 5867 5869 5870 5872 5874 5875 5876 5877 5878 5880 5882 5884 5884 5885 5886 5886 5888 5891 5894 5894 5894 5895 5895 5895 5896 5897 5897 5897 5897 5898 5897 5897 5896 5896 5897 5897 5897 5897 5896 5896 5896 5896 5896 5896 5897 5897 5897 5898 5899 5900 5901 5901 5902 5902 5902 5902 5902 5903
5803 5804 5806 5808 5810 5812 5814 5817 5819 5822 5824 5826 5828 5830 5833 5835 5837 5839 5841 5844 5846 5848 5850 5852 5854 5855 5857 5859 5861 5862 5864 5866 5868 5870 5871 5872 5874 5876 5877 5878 5879 5880 5881 5883 5885 5887 5888 5888 5889 5889 5889 5890 5891 5891 5891 5892 5892 5892 5892 5892 5891 5891 5891 5890 5890 5890 5890 5890 5890 5890 5890 5890 5891 5893 5895 5896 5897 5898 5898 5898 5898 5898 5898 5898 5898
5794 5796 5798 5799 5801 5803 5805 5808 5810 5812 5815 5817 5819 5821 5824 5827 5830 5831 5833 5835 5837 5840 5842 5845 5847 5849 5850 5852 5853 5855 5856 5858 5861 5863 5864 5865 5867 5869 5871 5872 5873 5874 5875 5877 5879 5880 5881 5882 5883 5884 5883 5884 5885 5886 5886 5886 5887 5887 5887 5888 5887 5886 5885 5885 5884 5884 5885 5885 5884 5883 5883 5885 5888 5892 5894 5894 5893 5893 5893 5893 5893 5892 5893 5893 5893
5786 5788 5790 5791 5793 5795 5796 5798 5800 5802 5804 5807 5809 5811 5814 5817 5820 5823 5825 5826 5828 5831 5834 5836 5839 5841 5842 5844 5846 5848 5849 5850 5852 5855 5856 5858 5859 5861 5864 5866 5867 5868 5869 5870 5872 5873 5874 5875 5877 5877 5877 5878 5880 5880 5881 5881 5881 5881 5882 5882 5882 5881 5880 5879 5880 5880 5879 5878 5876 5877 5881 5886 5890 5892 5891 5889 5888 5887 5887 5887 5886 5886 5886 5887 5887
5777 5779 5781 5782 5785 5786 5788 5789 5791 5793 5795 5797 5799 5802 5804 5807 5809 5812 5815 5818 5820 5821 5824 5826 5829 5831 5833 5835 5838 5840 5842 5843 5845 5847 5848 5850 5851 5853 5856 5859 5861 5861 5862 5863 5865 5866 5867 5868 5869 5870 5871 5872 5873 5874 5875 5876 5876 5876 5876 5876 5876 5876 5875 5875 5875 5873 5871 5871 5874 5880 5885 5888 5888 5886 5883 5881 5880 5880 5880 5880 5880 5880 5881 5882 5882
5769 5770 5772 5773 5775 5777 5779 5780 5782 5783 5785 5787 5790 5792 5794 5797 5799 5802 5804 5807 5810 5812 5814 5816 5818 5820 5824 5827 5829 5831 5833 5835 5837 5839 5840 5842 5843 5845 5848 5851 5853 5853 5854 5856 5857 5859 5860 5861 5862 5863 5864 5865 5866 5867 5869 5870 5870 5870 5870 5871 5871 5871 5870 5870 5869 5866 5865 5868 5874 5880 5882 5881 5879 5877 5875 5875 5874 5873 5874 5875 5876 5877 5878 5878 5877
5760 5762 5762 5764 5765 5767 5769 5771 5772 5773 5775 5777 5780 5782 5784 5786 5788 5791 5794 5796 5799 5802 5805 5807 5808 5809 5812 5816 5818 5820 5823 5826 5828 5830 5832 5833 5835 5837 5840 5843 5844 5846 5847 5848 5849 5851 5852 5854 5855 5856 5857 5858 5859 5860 5861 5863 5864 5865 5865 5865 5866 5865 5865 5865 5862 5861 5862 5866 5868 5870 5872 5874 5875 5874 5872 5870 5870 5870 5869 5869 5870 5872 5873 5872 5871
5751 5752 5753 5754 5756 5757 5759 5760 5762 5763 5765 5767 5769 5770 5773 5775 5778 5780 5783 5786 5788 5790 5793 5796 5799 5801 5803 5804 5805 5808 5811 5814 5817 5821 5823 5825 5826 5829 5832 5834 5836 5838 5839 5840 5841 5842 5844 5846 5847 5848 5849 5851 5852 5853 5854 5855 5857 5858 5859 5859 5860 5860 5860 5859 5857 5856 5859 5860 5859 5861 5865 5870 5872 5872 5870 5867 5866 5866 5865 5864 5864 5865 5866 5866 5864
5742 5743 5744 5745 5746 5747 5748 5750 5751 5752 5754 5756 5758 5759 5761 5763 5766 5768 5771 5774 5777 5780 5782 5785 5788 5791 5793 5794 5794 5796 5798 5802 5806 5810 5813 5815 5817 5820 5822 5825 5827 5829 5830 5832 5833 5834 5835 5837 5839 5840 5842 5844 5845 5846 5847 5848 5849 5851 5852 5853 5854 5854 5854 5853 5851 5850 5851 5851 5850 5853 5860 5865 5866 5866 5864 5862 5861 5860 5859 5858 5858 5858 5858 5859 5858
5732 5733 5734 5735 5736 5737 5738 5739 5740 5742 5743 5745 5746 5748 5750 5752 5754 5756 5758 5761 5764 5768 5771 5774 5777 5780 5782 5784 5785 5786 5787 5789 5793 5797 5801 5805 5808 5810 5812 5815 5818 5819 5821 5822 5824 5826 5828 5830 5831 5832 5833 5835 5836 5838 5839 5840 5841 5843 5844 5845 5847 5848 5847 5846 5844 5842 5841 5841 5844 5849 5854 5857 5857 5856 5856 5857 5856 5855 5853 5853 5853 5852 5851 5850 5849
5722 5723 5724 5725 5725 5727 5728 5729 5730 5731 5732 5733 5735 5736 5738 5740 5741 5743 5745 5748 5751 5755 5758 5762 5765 5768 5770 5772 5774 5775 5777 5779 5782 5784 5788 5792 5796 5799 5802 5805 5807 5809 5811 5813 5815 5818 5819 5821 5823 5824 5825 5826 5827 5829 5830 5832 5833 5835 5836 5837 5839 5840 5841 5840 5838 5836 5833 5835 5840 5845 5847 5847 5847 5847 5849 5851 5851 5849 5849 5849 5847 5845 5843 5842 5841
5713 5713 5714 5715 5715 5716 5717 5718 5719 5719 5720 5721 5722 5724 5726 5727 5729 5731 5733 5735 5738 5741 5744 5748 5752 5755 5758 5760 5762 5763 5765 5768 5771 5773 5776 5779 5783 5787 5791 5794 5796 5799 5802 5804 5806 5808 5809 5811 5814 5815 5816 5817 5819 5820 5822 5823 5825 5826 5828 5829 5830 5832 5833 5833 5833 5831 5827 5828 5834 5839 5839 5838 5839 5839 5840 5842 5842 5841 5842 5842 5840 5838 5838 5838 5838
5703 5704 5705 5705 5705 5706 5706 5707 5707 5708 5708 5709 5709 5710 5712 5714 5716 5718 5721 5723 5725 5727 5730 5734 5738 5741 5744 5747 5749 5750 5753 5756 5759 5762 5765 5767 5770 5774 5778 5783 5786 5789 5791 5792 5794 5796 5799 5801 5804 5806 5808 5809 5811 5812 5814 5815 5816 5818 5820 5821 5822 5824 5825 5825 5825 5824 5820 5819 5823 5829 5831 5830 5830 5831 5832 5832 5832 5832 5833 5834 5833 5834 5834 5834 5833
5694 5694 5695 5695 5695 5695 5695 5695 5695 5695 5696 5696 5696 5696 5697 5699 5702 5705 5707 5710 5712 5714 5716 5719 5723 5726 5729 5732 5735 5737 5740 5743 5747 5750 5754 5757 5759 5762 5766 5770 5774 5776 5778 5780 5782 5784 5788 5791 5794 5797 5799 5801 5802 5804 5805 5807 5808 5809 5810 5812 5814 5815 5816 5817 5817 5816 5814 5812 5813 5818 5821 5821 5822 5823 5823 5823 5823 5824 5826 5827 5827 5827 5827 5826 5825
5683 5683 5684 5684 5684 5683 5683 5683 5682 5682 5683 5683 5682 5682 5683 5685 5688 5691 5693 5696 5699 5701 5703 5705 5708 5710 5713 5717 5720 5723 5726 5730 5735 5739 5742 5745 5748 5751 5753 5756 5759 5762 5765 5767 5769 5772 5777 5780 5784 5787 5789 5791 5793 5795 5797 5798 5799 5800 5801 5803 5805 5806 5807 5808 5808 5808 5808 5806 5806 5808 5811 5812 5812 5814 5815 5815 5815 5816 5818 5819 5818 5818 5818 5818 5817
5673 5673 5672 5673 5672 5672 5671 5671 5670 5670 5670 5669 5669 5669 5670 5672 5674 5676 5679 5681 5684 5687 5688 5691 5693 5695 5697 5701 5704 5708 5712 5716 5721 5725 5729 5732 5734 5737 5739 5742 5746 5748 5751 5754 5757 5761 5765 5769 5772 5775 5779 5781 5783 5785 5788 5789 5791 5792 5793 5794 5796 5797 5798 5799 5799 5800 5800 5800 5800 5801 5802 5803 5803 5804 5805 5806 5807 5808 5809 5809 5810 5809 5809 5809 5809
5664 5663 5662 5661 5661 5660 5660 5659 5658 5658 5657 5657 5656 5656 5657 5659 5660 5662 5664 5667 5669 5671 5673 5676 5678 5680 5682 5685 5688 5692 5697 5702 5706 5710 5714 5717 5721 5723 5726 5729 5733 5735 5738 5741 5744 5748 5752 5756 5760 5763 5767 5770 5772 5775 5778 5780 5781 5783 5784 5785 5786 5787 5788 5789 5790 5791 5792 5792 5793 5794 5794 5795 5796 5796 5797 5797 5798 5799 5799 5800 5801 5801 5801 5802 5802
5654 5653 5652 5651 5650 5650 5649 5649 5648 5647 5646 5646 5645 5645 5645 5646 5648 5649 5651 5653 5655 5656 5658 5661 5663 5664 5666 5669 5672 5677 5682 5687 5691 5694 5698 5702 5705 5709 5713 5716 5720 5723 5726 5729 5732 5735 5738 5742 5747 5751 5755 5758 5761 5764 5767 5769 5771 5773 5774 5776 5777 5778 5779 5780 5781 5782 5783 5784 5784 5785 5786 5787 5788 5789 5789 5790 5790 5790 5790 5791 5791 5792 5793 5793 5794
5645 5644 5643 5642 5642 5641 5640 5640 5639 5638 5637 5637 5636 5636 5636 5636 5637 5638 5639 5640 5642 5643 5644 5646 5648 5650 5652 5655 5658 5661 5666 5670 5674 5677 5680 5684 5689 5694 5699 5703 5707 5710 5713 5716 5719 5722 5725 5728 5733 5738 5742 5746 5750 5753 5756 5758 5760 5762 5764 5766 5767 5768 5770 5771 5772 5773 5774 5775 5776 5777 5777 5778 5779 5780 5781 5782 5782 5782 5782 5782 5783 5783 5783 5784 5785
5637 5636 5635 5634 5634 5633 5632 5632 5631 5630 5629 5629 5628 5628 5628 5627 5627 5628 5629 5630 5631 5632 5632 5633 5635 5638 5640 5642 5644 5647 5651 5654 5656 5660 5664 5668 5673 5679 5684 5688 5692 5695 5698 5702 5706 5709 5712 5715 5719 5724 5729 5734 5738 5741 5744 5747 5749 5751 5753 5755 5757 5759 5760 5761 5763 5764 5765 5766 5767 5768 5768 5769 5770 5771 5772 5773 5774 5774 5774 5774 5774 5775 5775 5775 5776
5629 5628 5628 5627 5626 5625 5625 5624 5623 5623 5622 5621 5621 5620 5620 5619 5619 5620 5620 5621 5621 5622 5623 5623 5625 5626 5628 5630 5632 5634 5636 5637 5640 5645 5650 5655 5659 5664 5668 5672 5675 5679 5684 5688 5692 5696 5699 5702 5706 5711 5715 5720 5725 5729 5732 5735 5738 5740 5742 5745 5747 5749 5750 5752 5753 5755 5756 5757 5758 5759 5759 5760 5761 5762 5763 5764 5765 5765 5766 5766 5766 5766 5767 5767 5767